Location: Gesvres
(49.0440°N, 2.8518°E)
Time: 12:18:43
(UTC+00:00)

Cosmos 1606 Rocket - Pass Details

Date: 28 January 2023
Orbit: 602 x 630 km, 82.5° (Epoch: 22 March)

Event Time Altitude Azimuth Distance (km) Brightness Sun altitude
Rises 18:27:25 0° 354° (N) 2,871 7.0 -17.8°
Reaches altitude 10° 18:29:42 10° 359° (N) 1,961 6.1 -18.1°
Maximum altitude 18:33:56 52° 76° (ENE) 759 3.6 -18.8°
Enters shadow 18:36:23 23° 144° (SE) 1,292 4.9 -19.2°
